Location: Peebles
(55.6412°N, 3.1714°W)
Time: 22:40:35
(UTC+00:00)

deb Agena D - Pass Details

Date: 27 September 2023
Orbit: 794 x 979 km, 99.8° (Epoch: 28 November)

Event Time Altitude Azimuth Distance (km) Brightness Sun altitude
Rises 01:04:22 0° 19° (NNE) 3,697 10.4 -35.8°
Reaches altitude 10° 01:06:55 10° 23° (NNE) 2,742 9.5 -35.8°
Enters shadow 01:11:01 41° 45° (NE) 1,389 7.5 -35.8°
